This is the latest recevied weather packets stored in our database for station/object N5KJT. If no packets are shown the sender has not sent any weather packets the latest 10 day(s).
| Time | Temp. | Humidity | Pressure | Rain* | Wind** | Luminosity | Snow |
|---|---|---|---|---|---|---|---|
| 1787685315 | 30.56° C | 30% | 1027.3 hPa | 0 mm | - | 959 W/m² | - |
| 1787685016 | 30.56° C | 30% | 1027.4 hPa | 0 mm | - | 358 W/m² | - |
| 1787684717 | 30.56° C | 29% | 1027.5 hPa | 0 mm | - | 283 W/m² | - |
| 1787684417 | 30.56° C | 29% | 1027.7 hPa | 0 mm | - | 224 W/m² | - |
| 1787684118 | 31.11° C | 27% | 1027.6 hPa | 0 mm | - | 184 W/m² | - |
| 1787683817 | 31.67° C | 28% | 1027.6 hPa | 0 mm | - | 153 W/m² | - |
| 1787683517 | 31.67° C | 29% | 1027.6 hPa | 0 mm | - | 1273 W/m² | - |
| 1787683217 | 31.11° C | 29% | 1027.6 hPa | 0 mm | - | 1230 W/m² | - |
| 1787682917 | 31.11° C | 31% | 1027.7 hPa | 0 mm | - | 1202 W/m² | - |
| 1787682617 | 30.56° C | 32% | 1027.8 hPa | 0 mm | - | 1187 W/m² | - |
| 1787682317 | 30.56° C | 30% | 1028 hPa | 0 mm | - | 1176 W/m² | - |
| 1787682017 | 30.56° C | 32% | 1028.1 hPa | 0 mm | - | 1053 W/m² | - |
| 1787681717 | 30° C | 32% | 1028.2 hPa | 0 mm | - | 744 W/m² | - |
| 1787681417 | 30° C | 33% | 1028.3 hPa | 0 mm | - | 804 W/m² | - |
| 1787681117 | 29.44° C | 34% | 1028.4 hPa | 0 mm | - | 853 W/m² | - |
| 1787680817 | 29.44° C | 35% | 1028.4 hPa | 0 mm | - | 926 W/m² | - |
| 1787680517 | 29.44° C | 35% | 1028.4 hPa | 0 mm | - | 1035 W/m² | - |
| 1787680217 | 28.89° C | 36% | 1028.5 hPa | 0 mm | - | 1098 W/m² | - |
| 1787679917 | 28.89° C | 36% | 1028.6 hPa | 0 mm | - | 1103 W/m² | - |
| 1787679617 | 28.89° C | 36% | 1028.7 hPa | 0 mm | - | 1093 W/m² | - |
| 1787679317 | 28.89° C | 36% | 1028.7 hPa | 0 mm | - | 1082 W/m² | - |
| 1787679017 | 28.89° C | 37% | 1028.6 hPa | 0 mm | - | 1070 W/m² | - |
| 1787678717 | 28.89° C | 37% | 1028.6 hPa | 0 mm | - | 1058 W/m² | - |
| 1787678417 | 28.89° C | 37% | 1028.8 hPa | 0 mm | - | 1045 W/m² | - |
| 1787678117 | 28.33° C | 38% | 1028.8 hPa | 0 mm | - | 1032 W/m² | - |
* Rain latest hour (hover to see other rain measurements)
** Current wind speed in m/s (hover to see current wind gust speed)